VXE576 YPKA-YBRM

Flight info

Callsign VXE576
Flight time N/A
Altitude FL150
Route PD VEMTO
Aircraft DH8D/L-S/N

Departure

Time N/A
Airport Karratha Airport (YPKA)

Arrival

Time 2026-04-18 10:18
Airport Broome International Airport (YBRM)
Time Latitude Longitude Altitude Speed Heading
2026-04-18 09:20 -20.58649 117.48383 14890 ft 430 kts 79°
2026-04-18 09:20 -20.58087 117.51514 14890 ft 430 kts 79°
2026-04-18 09:20 -20.57527 117.54643 14890 ft 430 kts 79°
2026-04-18 09:21 -20.56966 117.57766 14889 ft 430 kts 79°
2026-04-18 09:21 -20.56401 117.60908 14891 ft 436 kts 79°
2026-04-18 09:21 -20.55825 117.64104 14889 ft 442 kts 79°
2026-04-18 09:21 -20.55244 117.67326 14892 ft 445 kts 79°
2026-04-18 09:22 -20.54659 117.70571 14890 ft 446 kts 79°
2026-04-18 09:22 -20.54075 117.73804 14888 ft 445 kts 79°
2026-04-18 09:22 -20.53491 117.77039 14887 ft 444 kts 79°
2026-04-18 09:22 -20.52907 117.80265 14888 ft 444 kts 79°
2026-04-18 09:23 -20.52323 117.83488 14887 ft 444 kts 79°
2026-04-18 09:23 -20.51739 117.86706 14888 ft 443 kts 79°
2026-04-18 09:23 -20.51254 117.89376 14887 ft 443 kts 79°
2026-04-18 09:23 -20.50669 117.92594 14888 ft 443 kts 79°
2026-04-18 09:24 -20.50084 117.95809 14887 ft 443 kts 79°
2026-04-18 09:24 -20.49498 117.99027 14887 ft 443 kts 79°
2026-04-18 09:24 -20.48913 118.02234 14884 ft 443 kts 79°
2026-04-18 09:24 -20.48466 118.04684 14884 ft 443 kts 79°
2026-04-18 09:25 -20.47879 118.07898 14884 ft 443 kts 79°
2026-04-18 09:25 -20.47290 118.11115 14884 ft 443 kts 79°
2026-04-18 09:25 -20.46701 118.14331 14884 ft 443 kts 79°
2026-04-18 09:25 -20.46111 118.17549 14884 ft 443 kts 79°
2026-04-18 09:26 -20.45674 118.19930 14884 ft 443 kts 79°
2026-04-18 09:26 -20.45407 118.21389 14884 ft 443 kts 79°
2026-04-18 09:27 -20.44816 118.24602 14884 ft 443 kts 79°
2026-04-18 09:27 -20.44225 118.27815 14884 ft 443 kts 79°
2026-04-18 09:27 -20.43633 118.31033 14880 ft 443 kts 79°
2026-04-18 09:27 -20.43040 118.34247 14877 ft 443 kts 79°
2026-04-18 09:28 -20.42446 118.37466 14876 ft 443 kts 79°
2026-04-18 09:28 -20.41853 118.40680 14877 ft 443 kts 79°
2026-04-18 09:28 -20.41259 118.43890 14876 ft 443 kts 79°
2026-04-18 09:28 -20.40663 118.47107 14877 ft 443 kts 79°
2026-04-18 09:29 -20.40067 118.50322 14876 ft 443 kts 79°
2026-04-18 09:29 -20.39472 118.53531 14877 ft 443 kts 78°
2026-04-18 09:29 -20.38874 118.56750 14876 ft 443 kts 78°
2026-04-18 09:29 -20.38192 118.59936 14879 ft 443 kts 74°
2026-04-18 09:30 -20.37168 118.63015 14889 ft 443 kts 68°
2026-04-18 09:30 -20.35877 118.65988 14881 ft 443 kts 62°
2026-04-18 09:30 -20.34242 118.68753 14879 ft 442 kts 53°
2026-04-18 09:30 -20.32238 118.71218 14888 ft 441 kts 47°
2026-04-18 09:31 -20.30222 118.73673 14881 ft 442 kts 49°
2026-04-18 09:31 -20.28346 118.76253 14879 ft 442 kts 53°
2026-04-18 09:31 -20.26605 118.78944 14878 ft 442 kts 56°
2026-04-18 09:31 -20.24948 118.81691 14879 ft 442 kts 57°
2026-04-18 09:32 -20.23308 118.84460 14878 ft 442 kts 57°
2026-04-18 09:32 -20.21622 118.87170 14888 ft 442 kts 55°
2026-04-18 09:32 -20.19845 118.89849 14890 ft 443 kts 54°
2026-04-18 09:32 -20.18037 118.92475 14887 ft 443 kts 53°
2026-04-18 09:33 -20.16224 118.95117 14885 ft 443 kts 54°
2026-04-18 09:33 -20.14432 118.97795 14886 ft 444 kts 54°
2026-04-18 09:33 -20.12679 119.00479 14885 ft 444 kts 55°
2026-04-18 09:33 -20.10931 119.03178 14886 ft 444 kts 55°
2026-04-18 09:34 -20.09181 119.05869 14886 ft 444 kts 55°
2026-04-18 09:34 -20.07415 119.08553 14886 ft 444 kts 54°
2026-04-18 09:34 -20.05644 119.11221 14890 ft 444 kts 54°
2026-04-18 09:34 -20.03861 119.13897 14896 ft 443 kts 54°
2026-04-18 09:35 -20.02084 119.16570 14894 ft 443 kts 54°
2026-04-18 09:35 -20.00312 119.19246 14893 ft 443 kts 54°
2026-04-18 09:35 -19.98554 119.21908 14893 ft 443 kts 55°
2026-04-18 09:35 -19.96780 119.24594 14893 ft 443 kts 54°
2026-04-18 09:36 -19.95012 119.27267 14893 ft 443 kts 54°
2026-04-18 09:36 -19.93627 119.29358 14893 ft 443 kts 54°
2026-04-18 09:36 -19.91836 119.32055 14893 ft 443 kts 54°
2026-04-18 09:36 -19.90063 119.34725 14893 ft 443 kts 54°
2026-04-18 09:37 -19.88298 119.37382 14894 ft 443 kts 54°
2026-04-18 09:37 -19.86545 119.40023 14965 ft 435 kts 55°
2026-04-18 09:37 -19.84814 119.42631 14982 ft 431 kts 54°
2026-04-18 09:37 -19.83115 119.45189 14986 ft 429 kts 54°
2026-04-18 09:38 -19.81396 119.47774 14987 ft 427 kts 54°
2026-04-18 09:38 -19.79695 119.50330 14987 ft 426 kts 54°
2026-04-18 09:38 -19.77987 119.52897 14987 ft 425 kts 54°
2026-04-18 09:38 -19.76285 119.55453 14987 ft 425 kts 54°
2026-04-18 09:39 -19.74582 119.58010 14988 ft 425 kts 54°
2026-04-18 09:39 -19.72883 119.60560 14987 ft 424 kts 54°
2026-04-18 09:39 -19.71169 119.63133 14926 ft 431 kts 54°
2026-04-18 09:39 -19.69434 119.65735 14910 ft 435 kts 54°
2026-04-18 09:40 -19.67691 119.68348 14909 ft 437 kts 54°
2026-04-18 09:40 -19.65935 119.70979 14910 ft 438 kts 54°
2026-04-18 09:40 -19.64176 119.73612 14909 ft 439 kts 54°
2026-04-18 09:40 -19.62413 119.76251 14909 ft 440 kts 54°
2026-04-18 09:41 -19.60652 119.78887 14908 ft 440 kts 54°
2026-04-18 09:41 -19.58878 119.81540 14899 ft 441 kts 54°
2026-04-18 09:41 -19.57109 119.84185 14899 ft 441 kts 54°
2026-04-18 09:41 -19.55344 119.86822 14897 ft 441 kts 54°
2026-04-18 09:42 -19.53570 119.89471 14898 ft 440 kts 54°
2026-04-18 09:42 -19.51801 119.92111 14894 ft 440 kts 54°
2026-04-18 09:42 -19.50034 119.94749 14893 ft 440 kts 54°
2026-04-18 09:42 -19.48266 119.97385 14893 ft 440 kts 54°
2026-04-18 09:43 -19.46508 120.00007 14893 ft 439 kts 54°
2026-04-18 09:43 -19.44742 120.02639 14893 ft 439 kts 54°
2026-04-18 09:43 -19.42976 120.05271 14893 ft 439 kts 54°
2026-04-18 09:43 -19.41398 120.07621 14893 ft 439 kts 54°
2026-04-18 09:44 -19.39631 120.10251 14893 ft 439 kts 54°
2026-04-18 09:44 -19.37869 120.12873 14894 ft 439 kts 54°
2026-04-18 09:44 -19.36096 120.15510 14892 ft 439 kts 54°
2026-04-18 09:44 -19.34335 120.18127 14915 ft 438 kts 54°
2026-04-18 09:45 -19.32587 120.20724 14975 ft 432 kts 54°
2026-04-18 09:45 -19.30856 120.23297 14985 ft 429 kts 54°
2026-04-18 09:45 -19.29132 120.25856 14987 ft 427 kts 54°
2026-04-18 09:45 -19.27414 120.28406 14987 ft 426 kts 54°
2026-04-18 09:46 -19.25698 120.30952 14987 ft 425 kts 54°
2026-04-18 09:46 -19.23985 120.33491 14988 ft 425 kts 54°
2026-04-18 09:46 -19.22275 120.36027 14986 ft 425 kts 54°
2026-04-18 09:46 -19.20550 120.38582 14920 ft 431 kts 54°
2026-04-18 09:47 -19.18804 120.41168 14906 ft 434 kts 54°
2026-04-18 09:47 -19.17051 120.43764 14906 ft 436 kts 54°
2026-04-18 09:47 -19.15353 120.46409 14903 ft 437 kts 57°
2026-04-18 09:47 -19.13797 120.49165 14904 ft 438 kts 60°
2026-04-18 09:48 -19.12352 120.51996 14900 ft 438 kts 62°
2026-04-18 09:48 -19.10955 120.54848 14903 ft 439 kts 62°
2026-04-18 09:48 -19.09515 120.57686 14902 ft 439 kts 61°
2026-04-18 09:48 -19.08008 120.60484 14904 ft 439 kts 59°
2026-04-18 09:49 -19.06452 120.63253 14898 ft 439 kts 59°
2026-04-18 09:49 -19.04886 120.66015 14890 ft 439 kts 59°
2026-04-18 09:49 -19.03343 120.68791 14885 ft 439 kts 59°
2026-04-18 09:49 -19.01829 120.71582 14884 ft 439 kts 60°
2026-04-18 09:50 -19.00331 120.74379 14884 ft 439 kts 60°
2026-04-18 09:50 -18.98831 120.77176 14884 ft 439 kts 60°
2026-04-18 09:50 -18.97323 120.79963 14884 ft 438 kts 60°
2026-04-18 09:50 -18.95807 120.82738 14884 ft 438 kts 59°
2026-04-18 09:51 -18.94275 120.85528 14884 ft 438 kts 59°
2026-04-18 09:51 -18.92752 120.88305 14884 ft 438 kts 59°
2026-04-18 09:51 -18.91233 120.91082 14875 ft 439 kts 60°
2026-04-18 09:51 -18.89711 120.93872 14872 ft 439 kts 60°
2026-04-18 09:52 -18.88193 120.96658 14871 ft 439 kts 60°
2026-04-18 09:52 -18.86673 120.99444 14871 ft 439 kts 60°
2026-04-18 09:52 -18.85151 121.02229 14871 ft 439 kts 60°
2026-04-18 09:52 -18.83630 121.05006 14871 ft 439 kts 59°
2026-04-18 09:53 -18.82107 121.07787 14871 ft 439 kts 59°
2026-04-18 09:53 -18.80588 121.10559 14871 ft 439 kts 59°
2026-04-18 09:53 -18.79058 121.13351 14871 ft 439 kts 59°
2026-04-18 09:53 -18.77537 121.16127 14875 ft 438 kts 59°
2026-04-18 09:54 -18.76017 121.18901 14865 ft 438 kts 59°
2026-04-18 09:54 -18.74494 121.21677 14863 ft 438 kts 59°
2026-04-18 09:54 -18.72972 121.24449 14862 ft 437 kts 59°
2026-04-18 09:54 -18.71455 121.27211 14862 ft 437 kts 59°
2026-04-18 09:55 -18.69932 121.29982 14861 ft 437 kts 59°
2026-04-18 09:55 -18.68411 121.32750 14862 ft 437 kts 59°
2026-04-18 09:55 -18.66893 121.35511 14861 ft 437 kts 59°
2026-04-18 09:55 -18.65371 121.38281 14862 ft 437 kts 59°
2026-04-18 09:56 -18.63853 121.41040 14861 ft 437 kts 59°
2026-04-18 09:56 -18.62333 121.43799 14868 ft 436 kts 59°
2026-04-18 09:56 -18.60812 121.46563 14863 ft 436 kts 59°
2026-04-18 09:56 -18.59292 121.49319 14868 ft 436 kts 59°
2026-04-18 09:57 -18.57772 121.52076 14868 ft 436 kts 59°
2026-04-18 09:57 -18.56250 121.54836 14863 ft 436 kts 59°
2026-04-18 09:57 -18.54729 121.57592 14872 ft 436 kts 59°
2026-04-18 09:57 -18.53208 121.60348 14868 ft 436 kts 59°
2026-04-18 09:58 -18.51684 121.63107 14862 ft 436 kts 59°
2026-04-18 09:58 -18.50165 121.65857 14867 ft 436 kts 59°
2026-04-18 09:58 -18.48637 121.68620 14689 ft 434 kts 59°
2026-04-18 09:58 -18.47185 121.71252 14480 ft 401 kts 59°
2026-04-18 09:59 -18.45830 121.73705 14477 ft 372 kts 59°
2026-04-18 09:59 -18.44574 121.75974 14588 ft 348 kts 59°
2026-04-18 09:59 -18.43390 121.78110 14712 ft 330 kts 59°
2026-04-18 10:00 -18.41179 121.82098 14845 ft 306 kts 59°
2026-04-18 10:00 -18.40121 121.84006 14861 ft 300 kts 59°
2026-04-18 10:00 -18.39077 121.85888 14866 ft 296 kts 59°
2026-04-18 10:00 -18.38044 121.87750 14864 ft 294 kts 59°
2026-04-18 10:01 -18.37018 121.89600 14862 ft 292 kts 59°
2026-04-18 10:01 -18.36289 121.90912 14854 ft 314 kts 59°
2026-04-18 10:01 -18.35514 121.92301 14868 ft 336 kts 59°
2026-04-18 10:01 -18.34288 121.94506 14874 ft 361 kts 59°
2026-04-18 10:02 -18.32992 121.96842 14862 ft 379 kts 59°
2026-04-18 10:02 -18.31643 121.99275 14852 ft 392 kts 59°
2026-04-18 10:02 -18.30255 122.01780 14849 ft 401 kts 59°
2026-04-18 10:02 -18.28839 122.04329 14848 ft 408 kts 59°
2026-04-18 10:03 -18.27404 122.06911 14845 ft 412 kts 59°
2026-04-18 10:03 -18.25957 122.09511 14841 ft 415 kts 59°
2026-04-18 10:03 -18.24504 122.12121 14839 ft 417 kts 59°
2026-04-18 10:03 -18.23035 122.14758 14836 ft 418 kts 59°
2026-04-18 10:04 -18.21557 122.17411 14839 ft 425 kts 59°
2026-04-18 10:04 -18.20058 122.20100 14837 ft 429 kts 59°
2026-04-18 10:04 -18.18763 122.22424 14847 ft 431 kts 59°
2026-04-18 10:04 -18.17248 122.25142 14848 ft 433 kts 59°
2026-04-18 10:05 -18.15726 122.27871 14845 ft 435 kts 59°
2026-04-18 10:05 -18.14198 122.30598 14842 ft 435 kts 58°
2026-04-18 10:05 -18.12391 122.33147 14853 ft 435 kts 48°
2026-04-18 10:05 -18.10195 122.35329 14691 ft 437 kts 39°
2026-04-18 10:06 -18.07731 122.37051 14306 ft 417 kts 28°
2026-04-18 10:06 -18.05112 122.38187 13926 ft 401 kts 16°
2026-04-18 10:06 -18.02420 122.38681 13550 ft 389 kts
2026-04-18 10:06 -17.99761 122.38503 13171 ft 381 kts 349°
2026-04-18 10:07 -17.97284 122.37651 12798 ft 374 kts 335°
2026-04-18 10:07 -17.95148 122.36189 12341 ft 361 kts 320°
2026-04-18 10:07 -17.93550 122.34230 11815 ft 351 kts 303°
2026-04-18 10:07 -17.92614 122.31907 11291 ft 344 kts 285°
2026-04-18 10:08 -17.92440 122.29452 10763 ft 335 kts 266°
2026-04-18 10:08 -17.93042 122.27141 10242 ft 327 kts 247°
2026-04-18 10:08 -17.94179 122.25112 9725 ft 320 kts 234°
2026-04-18 10:08 -17.95505 122.23270 9192 ft 315 kts 229°
2026-04-18 10:09 -17.96920 122.21548 8650 ft 311 kts 221°
2026-04-18 10:09 -17.98758 122.20461 8158 ft 304 kts 197°
2026-04-18 10:09 -18.00831 122.20278 7656 ft 297 kts 171°
2026-04-18 10:09 -18.02725 122.21023 7154 ft 291 kts 146°
2026-04-18 10:10 -18.04096 122.22529 6665 ft 285 kts 121°
2026-04-18 10:10 -18.04996 122.24357 6169 ft 282 kts 114°
2026-04-18 10:10 -18.05657 122.26277 5639 ft 280 kts 99°
2026-04-18 10:10 -18.05508 122.28277 5146 ft 278 kts 73°
2026-04-18 10:11 -18.04853 122.30168 4659 ft 275 kts 75°
2026-04-18 10:11 -18.04536 122.32124 4165 ft 272 kts 85°
2026-04-18 10:11 -18.04444 122.34096 3827 ft 265 kts 89°
2026-04-18 10:11 -18.04400 122.36001 3562 ft 257 kts 89°
2026-04-18 10:12 -18.04365 122.37850 3311 ft 251 kts 89°
2026-04-18 10:12 -18.04334 122.39653 3061 ft 246 kts 89°
2026-04-18 10:12 -18.04303 122.41443 2806 ft 244 kts 89°
2026-04-18 10:12 -18.04177 122.43209 2523 ft 244 kts 77°
2026-04-18 10:13 -18.03337 122.44711 2270 ft 240 kts 45°
2026-04-18 10:13 -18.01889 122.45512 2044 ft 235 kts 11°
2026-04-18 10:13 -18.00539 122.45381 2255 ft 217 kts 340°
2026-04-18 10:13 -17.99441 122.44449 2462 ft 198 kts 301°
2026-04-18 10:14 -17.98813 122.43173 2440 ft 194 kts 297°
2026-04-18 10:14 -17.98190 122.41974 2481 ft 188 kts 295°
2026-04-18 10:14 -17.97760 122.40710 2480 ft 185 kts 285°
2026-04-18 10:14 -17.97444 122.39389 2373 ft 184 kts 282°
2026-04-18 10:15 -17.97282 122.38083 2351 ft 180 kts 270°
2026-04-18 10:15 -17.97335 122.36739 2189 ft 197 kts 268°
2026-04-18 10:15 -17.97333 122.35241 2238 ft 210 kts 271°
2026-04-18 10:15 -17.97279 122.33780 2078 ft 193 kts 273°
2026-04-18 10:16 -17.97187 122.32408 1810 ft 187 kts 274°
2026-04-18 10:16 -17.97058 122.31051 1461 ft 186 kts 277°
2026-04-18 10:16 -17.96823 122.29720 1105 ft 186 kts 284°
2026-04-18 10:16 -17.96469 122.28465 851 ft 169 kts 289°
2026-04-18 10:17 -17.96059 122.27410 759 ft 150 kts 288°
2026-04-18 10:17 -17.95835 122.26424 542 ft 130 kts 281°
2026-04-18 10:17 -17.95635 122.25485 251 ft 141 kts 285°
2026-04-18 10:17 -17.95362 122.24513 188 ft 133 kts 286°
2026-04-18 10:18 -17.95127 122.23634 64 ft 120 kts 285°
2026-04-18 10:18 -17.94987 122.23110 64 ft 35 kts 289°
2026-04-18 10:18 -17.94918 122.23048 64 ft 4 kts
2026-04-18 10:18 -17.94868 122.23059 64 ft 2 kts 15°
2026-04-18 10:19 -17.94824 122.23072 64 ft 15 kts 17°